STARLINK-34089

Last updated on Mon Jun 16 2025 00:02:04 GMT+0000 (Coordinated Universal Time)

1 64039U 25102T 25166.45065119 -.00027327 00000+0 -62186-3 0 9991 2 64039 70.0007 72.2028 0002482 284.5121 75.5785 15.42760114 5821
UTC large
Height (km)
Speed (km/s)
/
Latitude / Longitude
Inclination (degrees)
Orbital Period (minutes)
Azimuth
Elevation
Range (km)
Doppler Factor

Next 0 passes for location: London (51.5072 / 0.1276)

Sorry there are no passes over London.